星链-32956 (STARLINK-32956)

导读 | 星芒AI

STARLINK-32956 是 SpaceX Starlink 卫星互联网项目中的一颗低轨卫星,属于第6批发射的星链卫星群。该卫星于2023年发射,运行在约550公里高度的近地轨道,旨在为全球用户提供高速互联网服务。Starlink 项目计划部署数万颗卫星,以构建覆盖全球的宽带网络,尤其服务于偏远地区。STARLINK-32956 采用先进通信技术,具备高带宽和低延迟特性,是实现 SpaceX 构建全球卫星互联网目标的重要组成部分。

基本信息
目录编号:
63569
目录名称:
STARLINK-32959
国际标识:
2025-076A
轨道中心:
EARTH
卫星名称:
星链-32956
卫星全名:
星链-32956 (STARLINK-32956)
卫星状态:
在轨 (已飞行207 天)
发射日期:
2025-04-14 UTC
国别 :
美国 (US)
星等 :
--
轨道信息
数据来源 国际轨道数据
星历时间: 2025-11-07T14:37:23+0800
16小时前
查看轨道信息
半长轴: 6861.041km
偏心率: 0.0000786
轨道倾角: 43.003°
近地点辐角 268.913°
升交点赤经 297.000°
平近点角 91.163°
近地点: 482.366km
远地点: 483.446km
周期: 94.264分钟
每日圈数: 15.276287
详细信息
固有亮度:
5
最大亮度:
2.5
卫星平台:
Starlink V1.0
覆盖范围:
全球
运营商:
太空探索技术公司
运营商所在国:
美国
制造商(研发单位):
太空探索技术公司
制造商所在国:
美国
使用方式:
暂无
卫星简介
Starlink 计划是 SpaceX 推出的全球卫星互联网项目,通过发射低轨道卫星,为全球尤其是偏远地区提供高速、低延迟的互联网服务。自 2019 年起,Starlink 已部署数千颗卫星,旨在缩小全球数字鸿沟,推动互联网普及。该项目还为军事、航空等行业提供通信支持,带来广泛经济效益。
2D轨道图
3D轨道图
轨道高度分析图
轨道倾角分析图
轨道综合分析图
查看轨道综合分析图